Wetterdaten: aktuell Mittwoch, 20.09.2017 21:33
Datum Zeit Innentemp. Temp Boden Temp Norden Innenfeuchte Licht Bodenfeuchte Feuchte Nord Luftdruck Windstrke Windrichtung Windrichtung Sonne Zeit Windchill
20.09.2017 21:33 20,9 C 11,1 C 11,8 C 59 % 0 % 93 % 78 % 1023 hPa 2,8 km/h SW 220 0 min 11,8 C
20.09.2017 21:28 20,9 C 11,1 C 11,9 C 59 % 0 % 93 % 77 % 1023 hPa 0,0 km/h SW 220 0 min 11,9 C
20.09.2017 21:23 20,8 C 11,1 C 12,1 C 59 % 0 % 93 % 77 % 1023 hPa 0,0 km/h SW 220 0 min 12,1 C
20.09.2017 21:18 20,8 C 11,1 C 12,1 C 59 % 0 % 93 % 77 % 1023 hPa 0,0 km/h SW 220 0 min 12,1 C
20.09.2017 21:13 20,8 C 11,1 C 12,4 C 60 % 0 % 93 % 77 % 1023 hPa 0,0 km/h SW 220 0 min 12,4 C
20.09.2017 21:08 20,8 C 11,1 C 12,5 C 60 % 0 % 93 % 77 % 1022 hPa 0,0 km/h SW 220 0 min 12,5 C
20.09.2017 21:03 20,8 C 11,1 C 12,7 C 60 % 0 % 93 % 77 % 1022 hPa 0,0 km/h SW 225 0 min 12,7 C
20.09.2017 20:57 20,9 C 11,1 C 12,8 C 60 % 0 % 93 % 77 % 1022 hPa 0,0 km/h SW 225 0 min 12,8 C
20.09.2017 20:53 20,9 C 11,1 C 12,9 C 60 % 0 % 93 % 77 % 1022 hPa 0,0 km/h SW 225 0 min 12,9 C
20.09.2017 20:48 20,8 C 11,1 C 13,2 C 60 % 0 % 93 % 77 % 1022 hPa 0,7 km/h SW22.5 225 0 min 13,2 C
20.09.2017 20:42 20,8 C 11,1 C 13,2 C 60 % 0 % 93 % 77 % 1022 hPa 0,6 km/h W-SW22.5 245 0 min 13,2 C
20.09.2017 20:38 20,9 C 11,1 C 13,3 C 60 % 0 % 93 % 77 % 1022 hPa 1,3 km/h SW22.5 230 0 min 13,3 C
20.09.2017 20:33 20,9 C 11,1 C 13,4 C 60 % 0 % 93 % 76 % 1022 hPa 0,0 km/h SW 215 0 min 13,4 C
20.09.2017 20:28 20,9 C 11,1 C 13,5 C 60 % 0 % 93 % 76 % 1022 hPa 0,6 km/h W-SW22.5 240 0 min 13,5 C
20.09.2017 20:23 20,8 C 11,1 C 13,6 C 60 % 0 % 93 % 76 % 1022 hPa 0,8 km/h W22.5 270 0 min 13,6 C
20.09.2017 20:18 20,9 C 11,1 C 13,7 C 60 % 0 % 93 % 76 % 1022 hPa 6,3 km/h W-NW67.5 290 0 min 13,7 C
20.09.2017 20:13 20,9 C 11,1 C 13,8 C 60 % 0 % 93 % 75 % 1022 hPa 9,8 km/h W45 270 0 min 13,8 C
20.09.2017 20:08 20,9 C 11,1 C 13,8 C 60 % 0 % 93 % 75 % 1022 hPa 8,7 km/h W67.5 270 0 min 13,8 C
20.09.2017 20:03 20,9 C 11,1 C 13,9 C 60 % 0 % 93 % 74 % 1022 hPa 0,0 km/h SW 230 0 min 13,9 C
20.09.2017 19:58 20,9 C 11,1 C 14,0 C 60 % 0 % 93 % 74 % 1022 hPa 2,6 km/h SW 230 0 min 14,0 C
20.09.2017 19:53 20,9 C 11,1 C 14,0 C 59 % 0 % 93 % 74 % 1022 hPa 0,0 km/h SW 230 0 min 14,0 C
20.09.2017 19:48 20,9 C 11,1 C 14,1 C 59 % 0 % 93 % 74 % 1022 hPa 0,6 km/h SW45 230 0 min 14,1 C
20.09.2017 19:43 20,9 C 11,1 C 14,2 C 59 % 0 % 93 % 73 % 1022 hPa 0,8 km/h W-NW22.5 285 0 min 14,2 C
20.09.2017 19:38 20,9 C 11,1 C 14,2 C 59 % 1 % 93 % 73 % 1022 hPa 0,0 km/h W-NW 290 0 min 14,2 C
20.09.2017 19:33 20,9 C 11,1 C 14,3 C 59 % 1 % 93 % 73 % 1022 hPa 3,4 km/h W-NW22.5 285 0 min 14,3 C
20.09.2017 19:28 21,0 C 11,1 C 14,4 C 59 % 1 % 93 % 72 % 1022 hPa 3,1 km/h W 270 0 min 14,4 C
20.09.2017 19:23 21,0 C 11,1 C 14,5 C 59 % 3 % 93 % 72 % 1022 hPa 0,3 km/h W-SW 255 0 min 14,5 C
20.09.2017 19:18 21,0 C 11,1 C 14,6 C 59 % 3 % 93 % 72 % 1022 hPa 5,7 km/h W-NW22.5 285 0 min 14,6 C
20.09.2017 19:13 21,0 C 11,1 C 14,7 C 59 % 5 % 93 % 71 % 1022 hPa 7,9 km/h W22.5 275 0 min 14,7 C
20.09.2017 19:08 21,0 C 11,1 C 14,7 C 59 % 7 % 93 % 71 % 1022 hPa 7,0 km/h W45 280 0 min 14,7 C
20.09.2017 19:03 21,0 C 11,1 C 14,8 C 59 % 8 % 93 % 71 % 1022 hPa 8,4 km/h W45 280 0 min 14,8 C
20.09.2017 18:58 21,0 C 11,1 C 14,9 C 59 % 8 % 93 % 70 % 1022 hPa 7,6 km/h W22.5 280 0 min 14,9 C
20.09.2017 18:53 21,0 C 11,1 C 15,0 C 59 % 10 % 93 % 69 % 1022 hPa 6,9 km/h W-NW22.5 290 0 min 15,0 C
20.09.2017 18:48 21,0 C 11,1 C 15,1 C 58 % 13 % 93 % 68 % 1022 hPa 4,0 km/h W 275 0 min 15,1 C
20.09.2017 18:43 21,1 C 11,1 C 15,2 C 58 % 14 % 93 % 67 % 1022 hPa 4,0 km/h W 275 0 min 15,2 C
20.09.2017 18:38 21,1 C 11,1 C 15,3 C 58 % 18 % 93 % 67 % 1022 hPa 7,5 km/h W-NW45 290 0 min 15,3 C
20.09.2017 18:33 21,2 C 11,1 C 15,4 C 58 % 19 % 93 % 66 % 1022 hPa 8,1 km/h W-NW22.5 285 0 min 15,4 C
20.09.2017 18:28 21,2 C 11,1 C 15,5 C 58 % 21 % 93 % 65 % 1022 hPa 10,6 km/h W45 275 0 min 15,5 C
20.09.2017 18:23 21,2 C 11,1 C 15,7 C 58 % 25 % 93 % 65 % 1021 hPa 10,6 km/h W-NW45 285 0 min 15,7 C
20.09.2017 18:18 21,2 C 11,1 C 15,8 C 58 % 28 % 93 % 65 % 1021 hPa 10,0 km/h W-NW22.5 290 0 min 15,8 C
20.09.2017 18:13 21,2 C 11,1 C 15,9 C 58 % 29 % 93 % 64 % 1021 hPa 10,0 km/h W-NW22.5 290 0 min 15,9 C
20.09.2017 18:07 21,2 C 11,1 C 16,0 C 58 % 48 % 93 % 63 % 1021 hPa 13,0 km/h W22.5 280 0 min 16,0 C
20.09.2017 18:03 21,3 C 11,1 C 16,2 C 58 % 64 % 93 % 63 % 1021 hPa 10,4 km/h W67.5 275 0 min 16,2 C
20.09.2017 17:58 21,3 C 11,1 C 16,3 C 58 % 67 % 93 % 62 % 1021 hPa 11,9 km/h W45 280 0 min 16,3 C
20.09.2017 17:53 21,3 C 11,1 C 16,4 C 58 % 50 % 93 % 61 % 1021 hPa 11,7 km/h W-NW22.5 285 0 min 16,4 C
20.09.2017 17:48 21,4 C 11,1 C 16,6 C 58 % 58 % 93 % 60 % 1021 hPa 7,5 km/h W45 275 0 min 16,6 C
20.09.2017 17:43 21,4 C 11,1 C 16,6 C 58 % 40 % 93 % 60 % 1021 hPa 9,6 km/h W45 280 0 min 16,6 C
20.09.2017 17:38 21,4 C 11,1 C 16,6 C 58 % 42 % 93 % 60 % 1021 hPa 15,1 km/h W-NW67.5 285 0 min 16,6 C
20.09.2017 17:33 21,5 C 11,1 C 16,7 C 58 % 53 % 93 % 61 % 1021 hPa 15,4 km/h W45 280 0 min 16,7 C
20.09.2017 17:28 21,4 C 11,1 C 16,7 C 58 % 78 % 93 % 62 % 1021 hPa 9,1 km/h W-NW45 285 5 min 16,7 C
20.09.2017 17:23 21,4 C 11,1 C 16,8 C 58 % 77 % 93 % 61 % 1021 hPa 12,2 km/h W67.5 280 5 min 16,8 C
20.09.2017 17:18 21,5 C 11,1 C 16,8 C 58 % 62 % 93 % 61 % 1021 hPa 10,8 km/h W45 265 0 min 16,8 C
20.09.2017 17:13 21,5 C 11,1 C 16,9 C 58 % 60 % 93 % 60 % 1021 hPa 10,9 km/h W45 270 0 min 16,9 C
20.09.2017 17:08 21,5 C 11,1 C 16,9 C 58 % 61 % 93 % 58 % 1021 hPa 12,1 km/h W-SW45 250 0 min 16,9 C
20.09.2017 17:03 21,6 C 11,1 C 16,9 C 58 % 61 % 93 % 58 % 1021 hPa 18,1 km/h W45 260 0 min 16,9 C
20.09.2017 16:58 21,5 C 11,1 C 17,0 C 58 % 62 % 93 % 58 % 1021 hPa 13,8 km/h W45 275 0 min 17,0 C
20.09.2017 16:53 21,6 C 11,1 C 17,0 C 58 % 65 % 93 % 60 % 1021 hPa 13,3 km/h W45 270 0 min 17,0 C
20.09.2017 16:48 21,6 C 11,1 C 17,0 C 57 % 79 % 93 % 60 % 1021 hPa 11,0 km/h W-NW45 295 5 min 17,0 C
20.09.2017 16:43 21,6 C 11,1 C 17,0 C 57 % 81 % 93 % 59 % 1021 hPa 15,0 km/h W-NW45 290 5 min 17,0 C
20.09.2017 16:38 21,5 C 11,1 C 16,9 C 57 % 84 % 93 % 57 % 1021 hPa 12,4 km/h W67.5 275 5 min 16,9 C
20.09.2017 16:33 21,5 C 11,1 C 16,9 C 57 % 84 % 93 % 60 % 1021 hPa 9,4 km/h W45 260 5 min 16,9 C
20.09.2017 16:28 21,5 C 11,1 C 16,9 C 57 % 85 % 93 % 61 % 1021 hPa 8,6 km/h W67.5 270 5 min 16,9 C
20.09.2017 16:23 21,4 C 11,1 C 16,8 C 57 % 86 % 93 % 59 % 1021 hPa 15,5 km/h W45 265 5 min 16,8 C
20.09.2017 16:18 21,4 C 11,1 C 16,8 C 57 % 86 % 93 % 58 % 1021 hPa 10,1 km/h W45 270 5 min 16,8 C
20.09.2017 16:13 21,4 C 11,1 C 16,8 C 57 % 59 % 93 % 59 % 1021 hPa 10,3 km/h W-SW45 250 0 min 16,8 C
20.09.2017 16:08 21,5 C 11,1 C 16,8 C 57 % 58 % 93 % 58 % 1021 hPa 6,9 km/h W-SW45 250 0 min 16,8 C
20.09.2017 16:03 21,5 C 11,1 C 16,8 C 58 % 58 % 93 % 58 % 1021 hPa 16,0 km/h W67.5 265 0 min 16,8 C
20.09.2017 15:58 21,5 C 11,1 C 16,7 C 58 % 88 % 93 % 60 % 1022 hPa 16,0 km/h W45 260 5 min 16,7 C
20.09.2017 15:53 21,5 C 11,1 C 16,5 C 58 % 90 % 93 % 61 % 1022 hPa 13,0 km/h W-SW67.5 255 5 min 16,5 C
20.09.2017 15:48 21,5 C 11,1 C 16,4 C 58 % 69 % 93 % 61 % 1022 hPa 12,7 km/h W67.5 265 0 min 16,4 C
20.09.2017 15:43 21,5 C 11,1 C 16,4 C 58 % 69 % 93 % 62 % 1022 hPa 12,9 km/h W67.5 270 0 min 16,4 C
20.09.2017 15:38 21,4 C 11,1 C 16,4 C 58 % 66 % 93 % 61 % 1022 hPa 3,1 km/h W-SW45 250 0 min 16,4 C
20.09.2017 15:33 21,4 C 11,1 C 16,4 C 58 % 76 % 93 % 62 % 1022 hPa 13,2 km/h W67.5 260 5 min 16,4 C
20.09.2017 15:28 21,4 C 11,1 C 16,3 C 58 % 75 % 93 % 62 % 1022 hPa 13,2 km/h W67.5 260 5 min 16,3 C
20.09.2017 15:23 21,4 C 11,1 C 16,3 C 58 % 86 % 93 % 63 % 1022 hPa 12,2 km/h W-SW45 245 5 min 16,3 C
20.09.2017 15:18 21,4 C 11,1 C 16,1 C 58 % 83 % 93 % 62 % 1022 hPa 12,1 km/h SW67.5 225 5 min 16,1 C
20.09.2017 15:13 21,4 C 11,1 C 16,0 C 58 % 89 % 93 % 62 % 1022 hPa 9,5 km/h W67.5 270 5 min 16,0 C
20.09.2017 15:08 21,3 C 11,1 C 16,0 C 58 % 87 % 93 % 61 % 1022 hPa 17,5 km/h W45 265 5 min 16,0 C
20.09.2017 15:03 21,3 C 11,1 C 15,9 C 58 % 86 % 93 % 61 % 1022 hPa 9,8 km/h W-SW45 255 5 min 15,9 C
20.09.2017 14:58 21,3 C 11,1 C 15,9 C 58 % 80 % 93 % 58 % 1022 hPa 8,9 km/h W45 275 5 min 15,9 C
20.09.2017 14:53 21,2 C 11,1 C 15,8 C 58 % 89 % 93 % 57 % 1022 hPa 14,2 km/h W67.5 270 5 min 15,8 C
20.09.2017 14:48 21,2 C 11,1 C 15,8 C 58 % 89 % 93 % 57 % 1022 hPa 9,9 km/h W-NW67.5 285 5 min 15,8 C
20.09.2017 14:43 21,2 C 11,1 C 15,8 C 58 % 90 % 93 % 59 % 1022 hPa 14,1 km/h W45 275 5 min 15,8 C
20.09.2017 14:38 21,1 C 11,1 C 15,7 C 58 % 80 % 93 % 60 % 1022 hPa 8,7 km/h W45 265 5 min 15,7 C
20.09.2017 14:33 21,1 C 11,1 C 15,8 C 58 % 91 % 93 % 60 % 1022 hPa 10,4 km/h W-NW45 285 5 min 15,8 C
20.09.2017 14:28 21,0 C 11,1 C 15,7 C 58 % 88 % 93 % 61 % 1022 hPa 12,0 km/h W45 280 5 min 15,7 C
20.09.2017 14:23 21,0 C 11,1 C 15,8 C 58 % 87 % 93 % 61 % 1022 hPa 12,1 km/h W45 280 5 min 15,8 C
20.09.2017 14:18 21,0 C 11,1 C 15,8 C 58 % 71 % 93 % 61 % 1022 hPa 9,6 km/h W45 280 5 min 15,8 C
20.09.2017 14:13 21,0 C 11,1 C 15,9 C 58 % 62 % 93 % 62 % 1022 hPa 14,6 km/h W-NW45 295 0 min 15,9 C
20.09.2017 14:08 21,0 C 11,1 C 15,8 C 58 % 59 % 93 % 62 % 1022 hPa 13,4 km/h W67.5 275 0 min 15,8 C
20.09.2017 14:03 21,0 C 11,1 C 15,8 C 58 % 61 % 93 % 62 % 1022 hPa 14,0 km/h W67.5 265 0 min 15,8 C
20.09.2017 13:58 21,0 C 11,1 C 15,7 C 58 % 78 % 93 % 63 % 1022 hPa 9,9 km/h W-NW67.5 285 5 min 15,7 C
20.09.2017 13:53 21,0 C 11,1 C 15,5 C 58 % 86 % 93 % 60 % 1022 hPa 10,3 km/h W45 275 5 min 15,5 C
20.09.2017 13:48 21,0 C 11,1 C 15,4 C 58 % 79 % 93 % 65 % 1022 hPa 14,5 km/h W45 275 5 min 15,4 C
20.09.2017 13:43 21,0 C 11,1 C 15,4 C 58 % 89 % 93 % 64 % 1022 hPa 10,0 km/h W-NW67.5 285 5 min 15,4 C
20.09.2017 13:38 20,9 C 11,1 C 15,4 C 57 % 83 % 93 % 64 % 1022 hPa 10,6 km/h W22.5 270 5 min 15,4 C
20.09.2017 13:33 20,9 C 11,1 C 15,4 C 57 % 71 % 93 % 66 % 1022 hPa 7,3 km/h W67.5 275 5 min 15,4 C
20.09.2017 13:28 21,0 C 11,1 C 15,4 C 58 % 81 % 93 % 66 % 1022 hPa 10,4 km/h W67.5 280 5 min 15,4 C
20.09.2017 13:23 20,9 C 11,1 C 15,4 C 57 % 73 % 93 % 65 % 1022 hPa 11,4 km/h W-NW67.5 295 5 min 15,4 C
20.09.2017 13:18 20,9 C 11,1 C 15,4 C 57 % 70 % 93 % 62 % 1022 hPa 13,0 km/h W45 280 0 min 15,4 C
20.09.2017 13:13 20,9 C 11,1 C 15,4 C 57 % 71 % 93 % 64 % 1022 hPa 16,9 km/h W67.5 280 0 min 15,4 C
20.09.2017 13:08 20,9 C 11,1 C 15,4 C 57 % 74 % 93 % 67 % 1022 hPa 7,9 km/h W-NW45 285 5 min 15,4 C
20.09.2017 13:03 20,9 C 11,1 C 15,4 C 57 % 56 % 93 % 67 % 1022 hPa 11,1 km/h W67.5 260 0 min 15,4 C
20.09.2017 12:58 21,0 C 11,1 C 15,4 C 58 % 56 % 93 % 64 % 1022 hPa 13,1 km/h W67.5 275 0 min 15,4 C
20.09.2017 12:53 21,0 C 11,1 C 15,4 C 58 % 60 % 93 % 69 % 1022 hPa 12,8 km/h W45 275 0 min 15,4 C
20.09.2017 12:48 21,0 C 11,1 C 15,4 C 57 % 95 % 93 % 68 % 1022 hPa 14,9 km/h W45 270 5 min 15,4 C
20.09.2017 12:43 21,0 C 11,1 C 15,2 C 57 % 95 % 93 % 70 % 1022 hPa 15,1 km/h W45 270 5 min 15,2 C
20.09.2017 12:38 20,9 C 11,1 C 15,1 C 57 % 89 % 93 % 71 % 1022 hPa 14,6 km/h W-SW67.5 240 5 min 15,1 C
20.09.2017 12:33 20,9 C 11,1 C 15,1 C 57 % 89 % 93 % 73 % 1022 hPa 1,3 km/h W-SW45 255 5 min 15,1 C
20.09.2017 12:28 20,8 C 11,1 C 14,9 C 57 % 95 % 93 % 77 % 1023 hPa 11,2 km/h W67.5 265 6 min 14,9 C
20.09.2017 12:22 20,8 C 11,1 C 14,7 C 57 % 78 % 93 % 83 % 1022 hPa 11,9 km/h W-NW67.5 290 4 min 14,7 C
20.09.2017 12:18 20,8 C 11,1 C 14,6 C 57 % 88 % 93 % 83 % 1022 hPa 9,4 km/h W67.5 275 5 min 14,6 C
20.09.2017 12:13 20,8 C 11,1 C 14,5 C 57 % 79 % 93 % 83 % 1023 hPa 0,4 km/h W-NW45 295 5 min 14,5 C
20.09.2017 12:08 20,9 C 11,1 C 14,4 C 57 % 74 % 93 % 84 % 1022 hPa 6,3 km/h NW45 315 5 min 14,4 C
20.09.2017 12:03 20,9 C 11,1 C 14,3 C 57 % 66 % 93 % 84 % 1023 hPa 6,3 km/h N-NW22.5 345 0 min 14,3 C
20.09.2017 11:58 20,8 C 11,1 C 14,3 C 57 % 65 % 93 % 83 % 1023 hPa 6,9 km/h W-SW67.5 240 0 min 14,3 C
20.09.2017 11:53 20,8 C 11,1 C 14,2 C 57 % 69 % 93 % 85 % 1023 hPa 6,9 km/h W-NW67.5 290 0 min 14,2 C
20.09.2017 11:48 20,8 C 11,1 C 14,1 C 57 % 72 % 93 % 85 % 1023 hPa 3,7 km/h W45 265 5 min 14,1 C
20.09.2017 11:43 20,8 C 11,1 C 14,1 C 57 % 71 % 93 % 85 % 1023 hPa 8,4 km/h W-NW22.5 290 0 min 14,1 C
20.09.2017 11:38 20,8 C 11,1 C 14,0 C 57 % 72 % 93 % 85 % 1023 hPa 1,4 km/h W-NW22.5 290 5 min 14,0 C
20.09.2017 11:33 20,8 C 11,1 C 13,9 C 57 % 66 % 93 % 84 % 1023 hPa 11,1 km/h W-NW67.5 285 0 min 13,9 C
20.09.2017 11:28 20,8 C 11,1 C 13,8 C 57 % 81 % 93 % 89 % 1023 hPa 11,7 km/h W-NW67.5 290 5 min 13,8 C
20.09.2017 11:23 20,8 C 11,1 C 13,8 C 57 % 76 % 93 % 89 % 1022 hPa 11,9 km/h S45 190 5 min 13,8 C
20.09.2017 11:18 20,8 C 11,1 C 13,6 C 57 % 92 % 93 % 89 % 1022 hPa 10,4 km/h W45 270 5 min 13,6 C
20.09.2017 11:13 20,8 C 11,1 C 13,5 C 57 % 73 % 93 % 89 % 1023 hPa 0,1 km/h SW22.5 230 5 min 13,5 C
20.09.2017 11:08 20,8 C 11,1 C 13,4 C 57 % 76 % 93 % 90 % 1023 hPa 10,4 km/h SW45 230 5 min 13,4 C
20.09.2017 11:03 20,8 C 11,1 C 13,3 C 57 % 79 % 93 % 90 % 1023 hPa 0,6 km/h W 275 5 min 13,3 C
20.09.2017 10:58 20,8 C 11,1 C 13,2 C 57 % 71 % 93 % 89 % 1023 hPa 7,6 km/h W-NW45 285 5 min 13,2 C
20.09.2017 10:53 20,8 C 11,1 C 13,2 C 57 % 73 % 93 % 90 % 1023 hPa 7,9 km/h W-NW22.5 285 5 min 13,2 C
20.09.2017 10:48 20,7 C 11,1 C 13,1 C 56 % 73 % 93 % 92 % 1023 hPa 6,2 km/h NW67.5 310 5 min 13,1 C
20.09.2017 10:43 20,7 C 11,1 C 13,0 C 56 % 67 % 93 % 92 % 1023 hPa 8,4 km/h W-NW67.5 295 0 min 13,0 C
20.09.2017 10:38 20,8 C 11,1 C 12,9 C 56 % 74 % 93 % 92 % 1023 hPa 11,1 km/h W45 275 5 min 12,9 C
20.09.2017 10:33 20,8 C 11,1 C 12,8 C 56 % 69 % 93 % 92 % 1023 hPa 6,2 km/h W45 270 0 min 12,8 C
20.09.2017 10:28 20,7 C 11,1 C 12,8 C 56 % 64 % 93 % 93 % 1023 hPa 2,3 km/h W67.5 280 0 min 12,8 C
20.09.2017 10:23 20,7 C 11,1 C 12,7 C 56 % 59 % 93 % 94 % 1023 hPa 11,6 km/h W45 275 0 min 12,7 C
20.09.2017 10:18 20,7 C 11,1 C 12,7 C 56 % 62 % 93 % 94 % 1023 hPa 9,1 km/h W-NW45 285 0 min 12,7 C
20.09.2017 10:13 20,7 C 11,1 C 12,7 C 56 % 68 % 93 % 95 % 1023 hPa 9,5 km/h NW45 310 0 min 12,7 C
20.09.2017 10:08 20,7 C 11,1 C 12,6 C 56 % 67 % 93 % 95 % 1023 hPa 12,7 km/h W-NW45 285 0 min 12,6 C
20.09.2017 10:02 20,7 C 11,1 C 12,4 C 56 % 66 % 93 % 96 % 1023 hPa 9,9 km/h W45 280 0 min 12,4 C
20.09.2017 09:58 20,6 C 11,1 C 12,4 C 56 % 65 % 93 % 96 % 1023 hPa 11,3 km/h W67.5 270 0 min 12,4 C
20.09.2017 09:53 20,7 C 11,1 C 12,2 C 56 % 75 % 93 % 96 % 1023 hPa 5,5 km/h W-NW45 290 5 min 12,2 C
20.09.2017 09:48 20,7 C 11,1 C 12,0 C 56 % 76 % 93 % 96 % 1023 hPa 7,6 km/h W45 275 5 min 12,0 C
20.09.2017 09:43 20,6 C 11,1 C 12,0 C 56 % 73 % 93 % 96 % 1022 hPa 9,1 km/h W-NW45 285 5 min 12,0 C
20.09.2017 09:38 20,6 C 11,1 C 11,8 C 56 % 76 % 93 % 97 % 1022 hPa 10,1 km/h W67.5 260 5 min 11,8 C
20.09.2017 09:33 20,6 C 11,1 C 11,7 C 56 % 78 % 93 % 97 % 1022 hPa 11,4 km/h W45 275 5 min 11,7 C
20.09.2017 09:28 20,6 C 11,1 C 11,7 C 56 % 79 % 93 % 97 % 1022 hPa 14,3 km/h W45 265 5 min 11,7 C
20.09.2017 09:23 20,6 C 11,1 C 11,6 C 56 % 71 % 93 % 98 % 1022 hPa 9,1 km/h W67.5 280 5 min 11,6 C
20.09.2017 09:18 20,6 C 11,1 C 11,6 C 56 % 61 % 93 % 98 % 1022 hPa 8,5 km/h W45 275 0 min 11,6 C
20.09.2017 09:13 20,6 C 11,1 C 11,5 C 56 % 71 % 93 % 98 % 1022 hPa 8,0 km/h W-SW67.5 250 0 min 11,5 C
20.09.2017 09:08 20,6 C 11,1 C 11,5 C 56 % 73 % 93 % 98 % 1022 hPa 9,0 km/h W45 270 5 min 11,5 C
20.09.2017 09:03 20,6 C 11,1 C 11,4 C 56 % 72 % 93 % 98 % 1022 hPa 12,4 km/h W45 265 5 min 11,4 C
20.09.2017 08:58 20,6 C 11,1 C 11,3 C 56 % 72 % 93 % 98 % 1022 hPa 5,7 km/h W22.5 265 5 min 11,3 C
20.09.2017 08:53 20,6 C 11,1 C 11,3 C 56 % 73 % 93 % 98 % 1022 hPa 11,1 km/h W-SW45 240 5 min 11,3 C
20.09.2017 08:48 20,6 C 11,1 C 11,1 C 56 % 67 % 93 % 98 % 1022 hPa 1,5 km/h SW22.5 235 0 min 11,1 C
20.09.2017 08:43 20,6 C 11,1 C 10,9 C 56 % 70 % 93 % 98 % 1022 hPa 6,9 km/h SW 215 0 min 10,9 C
20.09.2017 08:38 20,6 C 11,1 C 10,8 C 56 % 67 % 93 % 98 % 1022 hPa 0,1 km/h SW 215 0 min 10,8 C
20.09.2017 08:33 20,6 C 11,1 C 10,7 C 56 % 62 % 93 % 98 % 1022 hPa 0,7 km/h W-SW22.5 245 0 min 10,7 C
20.09.2017 08:28 20,6 C 11,1 C 10,6 C 56 % 44 % 93 % 98 % 1022 hPa 0,0 km/h W22.5 260 0 min 10,6 C
20.09.2017 08:23 20,6 C 11,1 C 10,6 C 56 % 46 % 93 % 98 % 1022 hPa 0,0 km/h W 265 0 min 10,6 C
20.09.2017 08:18 20,6 C 11,1 C 10,6 C 56 % 30 % 93 % 98 % 1022 hPa 2,2 km/h SW 230 0 min 10,6 C
20.09.2017 08:13 20,6 C 11,1 C 10,6 C 56 % 28 % 93 % 97 % 1022 hPa 0,0 km/h SW 230 0 min 10,6 C
20.09.2017 08:08 20,6 C 11,1 C 10,6 C 56 % 24 % 93 % 97 % 1022 hPa 0,0 km/h SW 230 0 min 10,6 C
20.09.2017 08:03 20,6 C 11,1 C 10,6 C 56 % 22 % 93 % 97 % 1022 hPa 0,0 km/h SW 230 0 min 10,6 C
20.09.2017 07:58 20,7 C 11,1 C 10,6 C 56 % 20 % 93 % 97 % 1022 hPa 0,4 km/h SW 225 0 min 10,6 C
20.09.2017 07:53 20,6 C 11,1 C 10,6 C 56 % 17 % 93 % 97 % 1022 hPa 1,2 km/h W 270 0 min 10,6 C
20.09.2017 07:48 20,7 C 11,1 C 10,6 C 56 % 17 % 93 % 97 % 1022 hPa 0,7 km/h W 275 0 min 10,6 C
20.09.2017 07:43 20,7 C 11,1 C 10,6 C 56 % 14 % 93 % 97 % 1022 hPa 5,3 km/h W-NW45 285 0 min 10,6 C
20.09.2017 07:38 20,7 C 11,1 C 10,6 C 56 % 12 % 93 % 98 % 1022 hPa 0,8 km/h W-NW 295 0 min 10,6 C
20.09.2017 07:33 20,7 C 11,1 C 10,6 C 56 % 11 % 93 % 98 % 1022 hPa 7,2 km/h W22.5 280 0 min 10,6 C
20.09.2017 07:28 20,7 C 11,1 C 10,6 C 56 % 9 % 93 % 98 % 1022 hPa 7,4 km/h W22.5 275 0 min 10,6 C
20.09.2017 07:23 20,7 C 11,1 C 10,6 C 56 % 7 % 93 % 98 % 1022 hPa 5,6 km/h W45 280 0 min 10,6 C
20.09.2017 07:18 20,7 C 11,1 C 10,6 C 56 % 4 % 93 % 98 % 1022 hPa 9,9 km/h W45 275 0 min 10,6 C
20.09.2017 07:13 20,7 C 11,1 C 10,6 C 57 % 3 % 93 % 98 % 1022 hPa 8,5 km/h W-NW45 295 0 min 10,6 C
20.09.2017 07:08 20,7 C 11,1 C 10,6 C 57 % 1 % 93 % 98 % 1022 hPa 9,1 km/h W67.5 275 0 min 10,6 C
20.09.2017 07:03 20,7 C 11,1 C 10,5 C 57 % 1 % 93 % 98 % 1022 hPa 6,2 km/h W45 275 0 min 10,5 C
20.09.2017 06:58 20,7 C 11,1 C 10,5 C 57 % 0 % 93 % 98 % 1022 hPa 6,3 km/h W45 280 0 min 10,5 C
20.09.2017 06:53 20,7 C 11,1 C 10,5 C 57 % 0 % 93 % 98 % 1022 hPa 5,9 km/h W45 275 0 min 10,5 C
20.09.2017 06:48 20,7 C 11,1 C 10,4 C 57 % 0 % 93 % 98 % 1022 hPa 0,0 km/h W 275 0 min 10,4 C
20.09.2017 06:43 20,7 C 11,1 C 10,4 C 57 % 0 % 93 % 97 % 1022 hPa 0,4 km/h SW45 225 0 min 10,4 C
20.09.2017 06:38 20,7 C 11,1 C 10,4 C 57 % 0 % 93 % 97 % 1022 hPa 0,1 km/h W 270 0 min 10,4 C
20.09.2017 06:33 20,7 C 11,1 C 10,3 C 57 % 0 % 93 % 97 % 1022 hPa 5,0 km/h W-NW22.5 290 0 min 10,3 C
20.09.2017 06:28 20,7 C 11,1 C 10,3 C 57 % 0 % 93 % 97 % 1022 hPa 1,3 km/h W-NW45 295 0 min 10,3 C
20.09.2017 06:23 20,7 C 11,1 C 10,3 C 57 % 0 % 93 % 97 % 1021 hPa 0,0 km/h S-SW 200 0 min 10,3 C
20.09.2017 06:18 20,7 C 11,1 C 10,3 C 57 % 0 % 93 % 97 % 1021 hPa 0,0 km/h S-SW 200 0 min 10,3 C
20.09.2017 06:13 20,7 C 11,1 C 10,2 C 57 % 0 % 93 % 97 % 1021 hPa 0,0 km/h S-SW 200 0 min 10,2 C
20.09.2017 06:08 20,7 C 11,1 C 10,2 C 57 % 0 % 93 % 97 % 1021 hPa 0,0 km/h S-SW 200 0 min 10,2 C
20.09.2017 06:03 20,7 C 11,1 C 10,2 C 57 % 0 % 93 % 97 % 1021 hPa 0,0 km/h S-SW 200 0 min 10,2 C
20.09.2017 05:58 20,7 C 11,1 C 10,2 C 57 % 0 % 93 % 97 % 1021 hPa 0,0 km/h S-SW 200 0 min 10,2 C
20.09.2017 05:53 20,7 C 11,1 C 10,2 C 57 % 0 % 93 % 97 % 1021 hPa 0,0 km/h S-SW 200 0 min 10,2 C
20.09.2017 05:48 20,6 C 11,1 C 10,2 C 57 % 0 % 93 % 97 % 1021 hPa 0,0 km/h S-SW 200 0 min 10,2 C
20.09.2017 05:43 20,7 C 11,1 C 10,2 C 57 % 0 % 93 % 97 % 1021 hPa 0,0 km/h S-SW 200 0 min 10,2 C
20.09.2017 05:38 20,7 C 11,1 C 10,2 C 57 % 0 % 93 % 97 % 1021 hPa 2,4 km/h S-SW 200 0 min 10,2 C
20.09.2017 05:33 20,7 C 11,1 C 10,2 C 57 % 0 % 93 % 97 % 1021 hPa 0,2 km/h S-SW 200 0 min 10,2 C
20.09.2017 05:28 20,7 C 11,1 C 10,2 C 57 % 0 % 93 % 97 % 1021 hPa 0,0 km/h S-SW 200 0 min 10,2 C
20.09.2017 05:23 20,6 C 11,1 C 10,2 C 57 % 0 % 93 % 97 % 1021 hPa 0,0 km/h S-SW 200 0 min 10,2 C
20.09.2017 05:18 20,7 C 11,1 C 10,2 C 57 % 0 % 93 % 97 % 1021 hPa 0,8 km/h S-SW 200 0 min 10,2 C
20.09.2017 05:13 20,6 C 11,1 C 10,2 C 57 % 0 % 93 % 97 % 1021 hPa 0,0 km/h S-SW 200 0 min 10,2 C
20.09.2017 05:08 20,6 C 11,1 C 10,2 C 57 % 0 % 93 % 97 % 1021 hPa 0,0 km/h S-SW 200 0 min 10,2 C
20.09.2017 05:03 20,7 C 11,1 C 10,2 C 57 % 0 % 93 % 97 % 1021 hPa 0,0 km/h S-SW 200 0 min 10,2 C
20.09.2017 04:58 20,6 C 11,1 C 10,2 C 57 % 0 % 93 % 97 % 1021 hPa 3,1 km/h S-SW 200 0 min 10,2 C
20.09.2017 04:53 20,6 C 11,1 C 10,2 C 57 % 0 % 93 % 97 % 1021 hPa 0,0 km/h S-SW 200 0 min 10,2 C
20.09.2017 04:48 20,6 C 11,1 C 10,2 C 57 % 0 % 93 % 97 % 1021 hPa 0,2 km/h S-SW 200 0 min 10,2 C
20.09.2017 04:43 20,6 C 11,1 C 10,2 C 57 % 0 % 93 % 97 % 1021 hPa 0,8 km/h SW22.5 215 0 min 10,2 C
20.09.2017 04:38 20,6 C 11,1 C 10,2 C 57 % 0 % 93 % 97 % 1021 hPa 0,0 km/h SW 235 0 min 10,2 C
20.09.2017 04:33 20,6 C 11,1 C 10,2 C 57 % 0 % 93 % 97 % 1021 hPa 2,4 km/h SW 235 0 min 10,2 C
20.09.2017 04:28 20,6 C 11,1 C 10,2 C 57 % 0 % 93 % 97 % 1021 hPa 0,8 km/h SW 235 0 min 10,2 C
20.09.2017 04:23 20,6 C 11,1 C 10,2 C 57 % 0 % 93 % 97 % 1021 hPa 0,3 km/h SW 225 0 min 10,2 C
20.09.2017 04:18 20,6 C 11,1 C 10,2 C 57 % 0 % 93 % 97 % 1021 hPa 0,4 km/h SW 225 0 min 10,2 C
20.09.2017 04:13 20,6 C 11,1 C 10,3 C 57 % 0 % 93 % 97 % 1021 hPa 0,0 km/h SW 225 0 min 10,3 C
20.09.2017 04:08 20,6 C 11,1 C 10,3 C 57 % 0 % 93 % 97 % 1021 hPa 0,0 km/h SW 225 0 min 10,3 C
20.09.2017 04:03 20,6 C 11,1 C 10,3 C 57 % 0 % 93 % 97 % 1021 hPa 0,0 km/h SW 225 0 min 10,3 C
20.09.2017 03:58 20,6 C 11,1 C 10,3 C 57 % 0 % 93 % 97 % 1021 hPa 0,0 km/h SW 225 0 min 10,3 C
20.09.2017 03:53 20,6 C 11,1 C 10,3 C 57 % 0 % 93 % 97 % 1021 hPa 0,0 km/h SW 225 0 min 10,3 C
20.09.2017 03:48 20,6 C 11,1 C 10,3 C 57 % 0 % 93 % 97 % 1021 hPa 0,0 km/h SW 225 0 min 10,3 C
20.09.2017 03:43 20,6 C 11,1 C 10,3 C 57 % 0 % 93 % 97 % 1021 hPa 0,0 km/h SW 225 0 min 10,3 C
20.09.2017 03:38 20,6 C 11,1 C 10,4 C 57 % 0 % 93 % 97 % 1021 hPa 0,0 km/h SW 225 0 min 10,4 C
20.09.2017 03:33 20,6 C 11,1 C 10,3 C 57 % 0 % 93 % 97 % 1021 hPa 0,3 km/h W-SW22.5 240 0 min 10,3 C
20.09.2017 03:28 20,6 C 11,1 C 10,3 C 57 % 0 % 93 % 97 % 1021 hPa 0,0 km/h W-SW 245 0 min 10,3 C
20.09.2017 03:23 20,6 C 11,1 C 10,4 C 57 % 0 % 93 % 97 % 1021 hPa 0,0 km/h W-SW 245 0 min 10,4 C
20.09.2017 03:18 20,6 C 11,1 C 10,4 C 57 % 0 % 93 % 97 % 1021 hPa 0,7 km/h SW 225 0 min 10,4 C
20.09.2017 03:13 20,6 C 11,1 C 10,4 C 57 % 0 % 93 % 97 % 1021 hPa 3,4 km/h SW 230 0 min 10,4 C
20.09.2017 03:08 20,6 C 11,1 C 10,4 C 57 % 0 % 93 % 97 % 1021 hPa 0,7 km/h SW 230 0 min 10,4 C
20.09.2017 03:03 20,6 C 11,1 C 10,4 C 57 % 0 % 93 % 97 % 1021 hPa 0,0 km/h SW 230 0 min 10,4 C
20.09.2017 02:58 20,6 C 11,1 C 10,4 C 57 % 0 % 93 % 97 % 1021 hPa 0,0 km/h SW 230 0 min 10,4 C
20.09.2017 02:53 20,6 C 11,1 C 10,4 C 57 % 0 % 93 % 97 % 1021 hPa 0,0 km/h SW 230 0 min 10,4 C
20.09.2017 02:48 20,6 C 11,1 C 10,4 C 57 % 0 % 93 % 97 % 1021 hPa 0,0 km/h SW 230 0 min 10,4 C
20.09.2017 02:43 20,6 C 11,1 C 10,4 C 57 % 0 % 93 % 97 % 1021 hPa 0,0 km/h SW 230 0 min 10,4 C
20.09.2017 02:38 20,6 C 11,1 C 10,4 C 57 % 0 % 93 % 97 % 1021 hPa 0,1 km/h SW 230 0 min 10,4 C
20.09.2017 02:33 20,6 C 11,1 C 10,5 C 57 % 0 % 93 % 97 % 1021 hPa 0,1 km/h SW 230 0 min 10,5 C
20.09.2017 02:28 20,6 C 11,1 C 10,4 C 57 % 0 % 93 % 97 % 1021 hPa 1,9 km/h SW 230 0 min 10,4 C
20.09.2017 02:23 20,6 C 11,1 C 10,5 C 57 % 0 % 93 % 97 % 1021 hPa 3,1 km/h SW 230 0 min 10,5 C
20.09.2017 02:18 20,6 C 11,1 C 10,5 C 57 % 0 % 93 % 97 % 1021 hPa 0,0 km/h SW 230 0 min 10,5 C
20.09.2017 02:17 20,6 C 11,1 C 10,5 C 57 % 0 % 93 % 97 % 1021 hPa 0,3 km/h SW 230 0 min 10,5 C
20.09.2017 02:08 20,6 C 11,1 C 10,4 C 57 % 0 % 93 % 97 % 1021 hPa 0,0 km/h SW 230 0 min 10,4 C
20.09.2017 02:03 20,6 C 11,1 C 10,5 C 57 % 0 % 93 % 96 % 1021 hPa 0,3 km/h SW 230 0 min 10,5 C
20.09.2017 01:58 20,6 C 11,1 C 10,5 C 57 % 0 % 93 % 96 % 1021 hPa 1,4 km/h W-SW22.5 250 0 min 10,5 C
20.09.2017 01:53 20,6 C 11,1 C 10,5 C 57 % 0 % 93 % 96 % 1021 hPa 2,9 km/h SW 235 0 min 10,5 C
20.09.2017 01:48 20,6 C 11,1 C 10,5 C 57 % 0 % 93 % 96 % 1021 hPa 3,6 km/h SW 235 0 min 10,5 C
20.09.2017 01:43 20,6 C 11,1 C 10,5 C 57 % 0 % 93 % 96 % 1021 hPa 0,0 km/h SW 225 0 min 10,5 C
20.09.2017 01:38 20,6 C 11,1 C 10,5 C 57 % 0 % 93 % 96 % 1021 hPa 6,4 km/h W-SW45 255 0 min 10,5 C
20.09.2017 01:33 20,6 C 11,1 C 10,5 C 57 % 0 % 93 % 96 % 1021 hPa 5,6 km/h SW45 230 0 min 10,5 C
20.09.2017 01:28 20,6 C 11,1 C 10,5 C 57 % 0 % 93 % 96 % 1021 hPa 1,9 km/h W-SW45 240 0 min 10,5 C
20.09.2017 01:23 20,6 C 11,1 C 10,5 C 57 % 0 % 93 % 96 % 1021 hPa 6,2 km/h SW45 235 0 min 10,5 C
20.09.2017 01:18 20,6 C 11,1 C 10,5 C 57 % 0 % 93 % 96 % 1021 hPa 0,0 km/h SW 235 0 min 10,5 C
20.09.2017 01:13 20,6 C 11,1 C 10,5 C 57 % 0 % 93 % 96 % 1021 hPa 1,3 km/h S-SW45 210 0 min 10,5 C
20.09.2017 01:08 20,6 C 11,1 C 10,5 C 57 % 0 % 93 % 96 % 1021 hPa 4,0 km/h SW45 225 0 min 10,5 C
20.09.2017 01:03 20,6 C 11,1 C 10,6 C 57 % 0 % 93 % 96 % 1021 hPa 0,0 km/h S-SW 195 0 min 10,6 C
20.09.2017 00:58 20,6 C 11,1 C 10,6 C 57 % 0 % 93 % 96 % 1021 hPa 0,1 km/h S-SW 195 0 min 10,6 C
20.09.2017 00:53 20,6 C 11,1 C 10,6 C 57 % 0 % 93 % 96 % 1021 hPa 0,4 km/h S-SW 195 0 min 10,6 C
20.09.2017 00:48 20,6 C 11,1 C 10,6 C 57 % 0 % 93 % 96 % 1021 hPa 4,6 km/h S-SW22.5 195 0 min 10,6 C
20.09.2017 00:43 20,6 C 11,1 C 10,6 C 57 % 0 % 93 % 96 % 1021 hPa 4,4 km/h S45 185 0 min 10,6 C
20.09.2017 00:38 20,6 C 11,1 C 10,6 C 57 % 0 % 93 % 96 % 1021 hPa 0,1 km/h W22.5 270 0 min 10,6 C
20.09.2017 00:33 20,6 C 11,1 C 10,6 C 57 % 0 % 93 % 96 % 1021 hPa 0,4 km/h W 280 0 min 10,6 C
20.09.2017 00:28 20,6 C 11,1 C 10,6 C 57 % 0 % 93 % 96 % 1021 hPa 0,0 km/h W 280 0 min 10,6 C
20.09.2017 00:23 20,6 C 11,1 C 10,6 C 57 % 0 % 93 % 96 % 1021 hPa 0,0 km/h W 280 0 min 10,6 C
20.09.2017 00:18 20,6 C 11,1 C 10,6 C 57 % 0 % 93 % 96 % 1021 hPa 0,0 km/h W 280 0 min 10,6 C
20.09.2017 00:13 20,6 C 11,1 C 10,6 C 57 % 0 % 93 % 96 % 1021 hPa 0,0 km/h W 280 0 min 10,6 C
20.09.2017 00:08 20,6 C 11,1 C 10,6 C 57 % 0 % 93 % 96 % 1021 hPa 0,0 km/h W 280 0 min 10,6 C
20.09.2017 00:03 20,6 C 11,1 C 10,7 C 57 % 0 % 93 % 96 % 1021 hPa 0,0 km/h W 280 0 min 10,7 C
_ Min-Zeit 00:03 00:03 04:18 07:18 - 00:03 14:48 00:03 00:03 - - - 04:18
Minimum _ 20,6 C 11,1 C 10,2 C 56 % - 93 % 57 % 1021 hPa 0,0 km/h - - - 10,2 C
_ Max-Zeit 16:43 00:03 16:43 19:58 12:43 00:03 06:48 09:48 17:03 - - 12:28 16:43
Maximum _ 21,6 C 11,1 C 17,0 C 60 % 95 % 93 % 98 % 1023 hPa 18,1 km/h
W
- - 6 min 17,0 C
Durchschnitt _ 20,9 C 11,1 C 12,9 C 57 % #5:40 h 93 % 83 % 1021 hPa 5,7 km/h W - #5:40 h 12,9 C